Time,TemperatureF,DewpointF,PressureIn,WindDirection,WindDirectionDegrees,WindSpeedMPH,WindSpeedGustMPH,Humidity,HourlyPrecipIn,Conditions,Clouds,dailyrainin,SoftwareType,DateUTC
2014-12-20 00:07:00,28.4,23.0,30.17,NW,322,2.0,3.0,80,0.00,,,0.00,weatherlink.com 1.10,2014-12-20 05:07:00,
2014-12-20 00:22:00,28.6,23.0,30.17,NNW,340,1.0,5.0,80,0.00,,,0.00,weatherlink.com 1.10,2014-12-20 05:22:00,
2014-12-20 00:37:00,28.6,23.0,30.17,NW,314,0.0,4.0,80,0.00,,,0.00,weatherlink.com 1.10,2014-12-20 05:37:00,
2014-12-20 00:52:00,28.8,23.0,30.18,NW,316,1.0,3.0,79,0.00,,,0.00,weatherlink.com 1.10,2014-12-20 05:52:00,
2014-12-20 01:07:00,28.8,23.0,30.18,WNW,299,2.0,3.0,79,0.00,,,0.00,weatherlink.com 1.10,2014-12-20 06:07:00,
2014-12-20 01:22:00,28.8,23.0,30.18,NW,305,2.0,6.0,78,0.00,,,0.00,weatherlink.com 1.10,2014-12-20 06:22:00,
2014-12-20 01:37:00,28.8,23.0,30.18,NW,311,1.0,3.0,78,0.00,,,0.00,weatherlink.com 1.10,2014-12-20 06:37:00,
2014-12-20 01:52:00,28.7,23.0,30.18,WNW,295,4.0,4.0,79,0.00,,,0.00,weatherlink.com 1.10,2014-12-20 06:52:00,
2014-12-20 02:07:00,28.6,23.0,30.18,NW,307,0.0,4.0,79,0.00,,,0.00,weatherlink.com 1.10,2014-12-20 07:07:00,
2014-12-20 02:22:00,28.6,23.0,30.18,NNW,338,1.0,2.0,79,0.00,,,0.00,weatherlink.com 1.10,2014-12-20 07:22:00,
2014-12-20 02:37:00,28.5,22.0,30.18,WNW,301,3.0,7.0,78,0.00,,,0.00,weatherlink.com 1.10,2014-12-20 07:37:00,
2014-12-20 02:52:00,28.5,22.0,30.18,NW,316,0.0,5.0,78,0.00,,,0.00,weatherlink.com 1.10,2014-12-20 07:52:00,
2014-12-20 03:07:00,28.4,23.0,30.17,NNW,344,2.0,7.0,79,0.00,,,0.00,weatherlink.com 1.10,2014-12-20 08:07:00,
2014-12-20 03:22:00,28.4,23.0,30.18,West,279,3.0,5.0,79,0.00,,,0.00,weatherlink.com 1.10,2014-12-20 08:22:00,
2014-12-20 03:37:00,28.3,23.0,30.18,WNW,282,1.0,5.0,79,0.00,,,0.00,weatherlink.com 1.10,2014-12-20 08:37:00,
2014-12-20 03:52:00,28.3,23.0,30.19,West,281,1.0,6.0,79,0.00,,,0.00,weatherlink.com 1.10,2014-12-20 08:52:00,
2014-12-20 04:07:00,28.3,23.0,30.19,NW,314,3.0,4.0,79,0.00,,,0.00,weatherlink.com 1.10,2014-12-20 09:07:00,
2014-12-20 04:22:00,28.2,22.0,30.20,NW,315,1.0,5.0,79,0.00,,,0.00,weatherlink.com 1.10,2014-12-20 09:22:00,
2014-12-20 04:37:00,28.2,23.0,30.20,WNW,287,0.0,5.0,80,0.00,,,0.00,weatherlink.com 1.10,2014-12-20 09:37:00,
2014-12-20 04:52:00,28.0,22.0,30.21,NW,310,1.0,3.0,79,0.00,,,0.00,weatherlink.com 1.10,2014-12-20 09:52:00,
2014-12-20 05:07:00,27.5,22.0,30.22,West,267,0.0,2.0,80,0.00,,,0.00,weatherlink.com 1.10,2014-12-20 10:07:00,
2014-12-20 05:22:00,26.9,22.0,30.23,NW,318,0.0,2.0,81,0.00,,,0.00,weatherlink.com 1.10,2014-12-20 10:22:00,
2014-12-20 05:37:00,25.9,21.0,30.23,NNW,337,0.0,1.0,83,0.00,,,0.00,weatherlink.com 1.10,2014-12-20 10:37:00,
2014-12-20 05:53:00,24.9,21.0,30.24,NNW,338,0.0,0.0,85,0.00,,,0.00,weatherlink.com 1.10,2014-12-20 10:53:00,
2014-12-20 06:08:00,23.9,20.0,30.24,NNW,337,0.0,0.0,86,0.00,,,0.00,weatherlink.com 1.10,2014-12-20 11:08:00,
2014-12-20 06:23:00,23.3,20.0,30.25,NNW,338,0.0,0.0,88,0.00,,,0.00,weatherlink.com 1.10,2014-12-20 11:23:00,
2014-12-20 06:38:00,22.6,20.0,30.25,NNW,338,0.0,0.0,89,0.00,,,0.00,weatherlink.com 1.10,2014-12-20 11:38:00,
2014-12-20 06:53:00,21.8,19.0,30.26,NNW,335,0.0,0.0,90,0.00,,,0.00,weatherlink.com 1.10,2014-12-20 11:53:00,
2014-12-20 07:08:00,21.6,20.0,30.26,NNW,336,0.0,0.0,92,0.00,,,0.00,weatherlink.com 1.10,2014-12-20 12:08:00,
2014-12-20 07:23:00,21.2,19.0,30.26,NNW,336,0.0,0.0,92,0.00,,,0.00,weatherlink.com 1.10,2014-12-20 12:23:00,
2014-12-20 07:38:00,21.3,20.0,30.26,NNW,336,0.0,0.0,93,0.00,,,0.00,weatherlink.com 1.10,2014-12-20 12:38:00,
2014-12-20 07:53:00,22.0,20.0,30.26,NNW,337,0.0,0.0,93,0.00,,,0.00,weatherlink.com 1.10,2014-12-20 12:53:00,
2014-12-20 08:08:00,24.0,21.0,30.26,WNW,302,1.0,3.0,88,0.00,,,0.00,weatherlink.com 1.10,2014-12-20 13:08:00,
2014-12-20 08:23:00,25.1,21.0,30.26,NNW,329,2.0,6.0,84,0.00,,,0.00,weatherlink.com 1.10,2014-12-20 13:23:00,
2014-12-20 08:38:00,25.9,21.0,30.26,West,280,1.0,5.0,83,0.00,,,0.00,weatherlink.com 1.10,2014-12-20 13:38:00,
2014-12-20 08:53:00,26.3,22.0,30.27,NW,304,3.0,6.0,82,0.00,,,0.00,weatherlink.com 1.10,2014-12-20 13:53:00,
2014-12-20 09:08:00,26.9,22.0,30.27,West,278,1.0,5.0,81,0.00,,,0.00,weatherlink.com 1.10,2014-12-20 14:08:00,
2014-12-20 09:23:00,27.4,22.0,30.26,WNW,293,3.0,7.0,80,0.00,,,0.00,weatherlink.com 1.10,2014-12-20 14:23:00,
2014-12-20 09:38:00,27.8,22.0,30.27,WNW,296,2.0,3.0,80,0.00,,,0.00,weatherlink.com 1.10,2014-12-20 14:38:00,
2014-12-20 09:53:00,28.5,22.0,30.26,NW,314,2.0,5.0,78,0.00,,,0.00,weatherlink.com 1.10,2014-12-20 14:53:00,
2014-12-20 10:08:00,29.3,23.0,30.27,NW,307,1.0,4.0,77,0.00,,,0.00,weatherlink.com 1.10,2014-12-20 15:08:00,
2014-12-20 10:23:00,29.8,23.0,30.26,NW,321,1.0,4.0,76,0.00,,,0.00,weatherlink.com 1.10,2014-12-20 15:23:00,
2014-12-20 10:38:00,30.0,23.0,30.27,NW,307,2.0,4.0,75,0.00,,,0.00,weatherlink.com 1.10,2014-12-20 15:38:00,
2014-12-20 10:53:00,30.3,23.0,30.27,NNW,347,1.0,4.0,74,0.00,,,0.00,weatherlink.com 1.10,2014-12-20 15:53:00,